Regional Weather Roundup
Issued by NWS Jackson, KY

Home | Current Version | Previous Version | Text Only | Print | Product List | Glossary On
Versions: 1 2 3 4 5 6 7 8 9 10 11 12 13 14 15 16 17 18 19 20 21 22 23 24 25 26 27 28 29 30 31 32 33 34 35 36 37 38 39 40 41 42 43 44 45 46 47 48 49 50
000
ASUS43 KJKL 281910
RWRJKL

EAST KENTUCKY HOURLY WEATHER ROUNDUP
NATIONAL WEATHER SERVICE JACKSON KY
200 PM EST SAT FEB 28 2015

NOTE: "FAIR" INDICATES FEW OR NO CLOUDS BELOW 12,000 FEET WITH
NO SIGNIFICANT WEATHER AND/OR OBSTRUCTIONS TO VISIBILITY.

* THESE REPORTS ARE NOT UNDER NWS QUALITY CONTROL AND MAY NOT
  REPORT WEATHER SUCH AS PRECIPITATION AND FOG.

KYZ079-080-083-085-087-088-110-112-115-119-120-282000
...EASTERN KENTUCKY...

CITY           SKY/WX    TMP DP  RH WIND       PRES   REMARKS
JACKSON        SUNNY     37  12  35 CALM      30.55F
LONDON         PTSUNNY   39  15  37 VRB3      30.54F
SOMERSET*      CLOUDY    37  16  41 CALM      30.57F
MONTICELLO*    MOSUNNY   42  21  43 CALM      30.57F
MIDDLESBORO*   SUNNY     41  21  44 E3        30.54F
HAZARD APT*    CLEAR     39  16  38 CALM      30.55F
BLACK MTN*       N/A     37  23  56 S5          N/A  WCI  34
PIKEVILLE APT* MOSUNNY   36  16  44 CALM      30.55F
BIG SANDY*     PTCLDY    37  15  40 E5        30.57F WCI  34
MOREHEAD APT*  CLEAR     34   7  32 VRB6      30.61F WCI  29
$$

KYZ035-036-041-042-044-050-067-078-099-282000
...CENTRAL KENTUCKY...

CITY           SKY/WX    TMP DP  RH WIND       PRES   REMARKS
MT STERLING*   SUNNY     34  14  44 E6        30.59F WCI  29
FLEMING/MASON* SUNNY     30  10  43 NE7       30.61F WCI  23
DANVILLE*      CLOUDY    32  16  51 NE3       30.58F
RICHMOND*      MOSUNNY   34  14  44 NE5       30.57F WCI  30
LEXINGTON      CLOUDY    31  14  49 VRB6      30.60F WCI  25
FRANKFORT        N/A     29  13  51 E8        30.60F WCI  21
$$

KYZ091>093-OHZ055-061-077-WVZ005-015-034-035-042-282000
...SOUTHERN OHIO/WEST VIRGINIA...

CITY           SKY/WX    TMP DP  RH WIND       PRES   REMARKS
COVINGTON      CLOUDY    26   6  42 E5        30.62F WCI  20
COLUMBUS       PTSUNNY   22   0  38 E5        30.67F WCI  16
DAYTON         PTSUNNY   22   2  42 SE10      30.64F WCI  11
WILMINGTON     CLOUDY    21   6  52 NE8       30.63F WCI  11
HUNTINGTON     SUNNY     33   9  36 VRB3      30.61F
CHARLESTON     MOSUNNY   36  12  37 VRB3      30.61F
PINEVILLE*     PTSUNNY   43  20  39 MISG      30.59F
BECKLEY        MOSUNNY   31  12  45 SE7       30.52F WCI  24
BLUEFIELD      MOSUNNY   37  14  38 VRB7      30.52F WCI  32
$$

VAZ002-007-008-TNZ017-027-036-066-071-282000
...SOUTHWEST VIRGINIA/EAST TENNESSEE...

CITY           SKY/WX    TMP DP  RH WIND       PRES   REMARKS
WISE*          MOSUNNY   41  19  42 NE7       30.50F
JONESVILLE*    PTCLDY    41  19  42 N5        30.55F
ABINGDON*      SUNNY     40  20  44 E7        30.53F
BRISTOL        PTSUNNY   42  23  46 CALM      30.54F
KNOXVILLE      PTSUNNY   41  23  48 N5        30.54F
OAK RIDGE      SUNNY     45  22  40 VRB3      30.55F
CROSSVILLE     SUNNY     45  28  51 VRB7      30.49F
NASHVILLE      PTSUNNY   42  18  37 NE3       30.53F
$$

...KEY TO REMARKS...
VSB - VISIBILITY IN MILES
WCI - WIND CHILL INDEX
HX  - HEAT INDEX

$$


USA.gov is the U.S. government's official web portal to all federal, state and local government web resources and services.